Preview of NWS' New Version of Forecast
This preview is not operational and should not be used for support decisions.
Latest weather observations around

Chicago, Chicago Midway Airport (KMDW)

Using English Units (Switch to International System of Units)
Date/ Time (CDT) Wind (mph) Vis. (mi) Weather Sky Cond. Temp (°F) Rel. Humidity Wind Chill (°F) Heat Index (°F) Pressure Precip. (in)
Air Dwpt 6 hour Altimeter (inHg) Sea level (inHg) 1 hr 3 hr 6 hr
Max Min
Jun 25 03:53 SW 8 10 Clear CLR 65 60     84%     29.8 29.77      
Jun 25 02:53 WSW 8 10 Clear CLR 65 60     84%     29.78 29.76      
Jun 25 01:53 SW 7 10 Clear CLR 65 60     84%     29.77 29.75      
Jun 25 00:53 WSW 8 10 Mostly Clear FEW060 67 59     76%     29.76 29.73      
Jun 24 23:53 WSW 10 10 Clear CLR 68 60     76%     29.74 29.72      
Jun 24 22:53 WSW 9 10 Clear CLR 68 61     78%     29.74 29.71      
Jun 24 21:53 WSW 9 10 Mostly Clear FEW040 69 60     73%     29.72 29.7      
Jun 24 20:53 W 13 10 Mostly Clear FEW040 FEW250 71 58     63%   71 29.7 29.68      
Jun 24 19:53 W 18 10 Clear   74 56     53%   74 29.67 29.64      
Jun 24 18:53 WSW 22 10 Mostly Cloudy and Windy SCT042 SCT150 BKN250 77 60     56%   77 29.63 29.6     0
Jun 24 17:53 SW 18 10 Mostly Cloudy FEW032 FEW060 SCT110 BKN160 BKN250 75 63     66%   75 29.62 29.59      
Jun 24 16:53 SSW 16 10 Clear   77 65     66%   78 29.59 29.56      
Jun 24 15:53 SW 13 10 Mostly Cloudy FEW020 SCT029 BKN060 78 67     69%   79 29.61 29.58   0  
Jun 24 14:53 SW 13 10 Mostly Cloudy FEW014 SCT022 BKN060 BKN150 75 69     82%   76 29.63 29.6 0    
Jun 24 14:49 SW 16 10 Mostly Cloudy FEW014 SCT022 BKN060 BKN150 75 70     83%   76 29.63   0    
Jun 24 13:53 WSW 9 10 Cloudy SCT012 BKN022 OVC110 73 70     90%   74 29.64 29.61 0    
Jun 24 13:45 WSW 9 10 Cloudy FEW012 BKN022 OVC110 71 68     90%   72 29.64   0    
Jun 24 13:08 WSW 11 9 Light Rain SCT017 BKN065 OVC110 71 69     93%   72 29.65   0    
Jun 24 12:53 WSW 11 10 Light Rain BKN016 BKN022 OVC041 71 68     90%   72 29.65 29.62 0   0
Jun 24 11:53 SW 13 10 Cloudy BKN016 BKN023 OVC060 74 68     82%   75 29.63 29.61      
Jun 24 10:53 SSW 15 10 Cloudy BKN017 BKN021 OVC050 74 68     82%   75 29.63 29.6 0    
Jun 24 09:53 SW 15 10 Cloudy BKN014 BKN021 OVC060 73 68     84%   74 29.64 29.61      
Jun 24 08:53 SSW 15 10 Cloudy BKN012 OVC018 73 68     84%   74 29.65 29.62      
Jun 24 07:53 SSW 10 10 Cloudy BKN010 BKN015 OVC023 71 69     93%   72 29.64 29.62      
Jun 24 06:53 SSW 9 9 Cloudy BKN010 BKN016 OVC060 71 69     93%   72 29.63 29.61 0   0
Jun 24 05:53 SW 9 9 Cloudy BKN008 BKN017 OVC060 71 69     93%   72 29.64 29.61      
Jun 24 05:34 SSW 7 10 Mostly Cloudy BKN008 BKN014 BKN020 71 69     93%   72 29.64        
Jun 24 04:53 SSW 8 10 Mostly Cloudy BKN010 BKN015 BKN026 71 69     93%   72 29.64 29.61      
Jun 24 03:53 SW 7 10 Mostly Cloudy BKN008 BKN012 BKN028 71 69     93%   72 29.63 29.6      
Jun 24 03:20 SSW 6 10 Mostly Cloudy BKN008 BKN028 71 70     96%   72 29.64        
Jun 24 02:53 SW 11 10 Mostly Cloudy BKN010 BKN023 72 70     93%   73 29.64 29.62      
Jun 24 01:53 SSW 8 10 Mostly Cloudy BKN010 BKN032 BKN060 72 70     93%   73 29.66 29.62      
Jun 24 01:17 SSW 10 10 Cloudy BKN010 BKN028 OVC060 72 70     93%   73 29.67        
Jun 24 00:53 SSW 9 10 Mostly Cloudy FEW010 SCT028 BKN060 72 70     93%   73 29.67 29.64     0
Jun 23 23:53 S 8 10 Mostly Cloudy FEW006 BKN018 BKN024 73 71     94%   74 29.68 29.65      
Jun 23 23:15 ESE 7 8 Cloudy SCT009 BKN016 OVC033 73 71     94%   74 29.68        
Jun 23 22:53 ESE 6 10 Cloudy SCT016 SCT021 BKN028 OVC130 73 72     96%   75 29.68 29.65      
Jun 23 21:53 NNE 3 10 Cloudy SCT018 BKN080 BKN090 OVC130 73 71     94%   74 29.71 29.68   0  
Jun 23 21:26 Calm 10 Cloudy SCT014 BKN020 OVC035 73 72     96%   75 29.71        
Jun 23 20:53 N 3 10 Cloudy FEW010 SCT033 BKN070 OVC150 74 71     91%   75 29.7 29.68      
Jun 23 19:53 WSW 6 10 Cloudy FEW010 FEW033 BKN055 OVC150 74 71     91%   75 29.71 29.68 0    
Jun 23 18:53 SE 5 10 Light Rain FEW010 BKN038 BKN070 OVC250 75 72     90%   76 29.72 29.7 0   0
Jun 23 17:53 SE 15 10 Light Rain FEW029 BKN042 BKN110 OVC250 76 70     82%   77 29.72 29.7 0    
Jun 23 16:53 S 9 10 Mostly Cloudy FEW030 SCT035 BKN048 BKN150 BKN250 82 71     69%   86 29.73 29.7      
Jun 23 15:53 SSE 10 10 Mostly Cloudy FEW025 SCT032 SCT120 BKN150 BKN250 82 71     69%   86 29.76 29.73 0 0  
Jun 23 15:39 S 8 10 Mostly Cloudy SCT028 SCT120 BKN150 BKN250 80 72     76%   84 29.77   0    
Jun 23 14:53 S 9 6 Light Rain and Fog/Mist BKN028 BKN035 BKN050 OVC150 78 71     79%   79 29.79 29.76 0    
Jun 23 13:53 SSW 11 10 Cloudy BKN022 BKN028 BKN035 OVC200 79 70     74%   82 29.83 29.8      
Jun 23 13:23 S 13 10 Cloudy BKN025 OVC250 78 69     74%   79 29.84        
Jun 23 13:03 SSW 10 10 Thunderstorms BKN027 BKN039 BKN110 OVC250 78 68     71%   79 29.85        
Jun 23 12:53 S 17 10 Cloudy BKN027 BKN039 BKN110 OVC250 78 68     71%   79 29.85 29.82     0
Jun 23 12:30 SSW 14 10 Cloudy BKN029 BKN039 BKN110 OVC250 78 67     69%   79 29.85        
Jun 23 11:53 S 14 10 Mostly Cloudy BKN047 BKN110 BKN250 79 67     67%   80 29.85 29.82      
Jun 23 10:53 S 17 10 Mostly Cloudy FEW046 SCT110 BKN250 78 67     69%   79 29.86 29.83      
Jun 23 09:53 SE 17 10 Mostly Cloudy FEW030 SCT110 SCT220 BKN250 74 66     76%   75 29.87 29.85   0  
Jun 23 08:53 SSE 13 10 Mostly Cloudy FEW030 FEW095 FEW220 BKN250 70 64     81%     29.9 29.87      
Jun 23 07:53 SE 10 10 Mostly Cloudy FEW030 SCT044 BKN095 BKN250 68 63     84%     29.94 29.91 0    
Jun 23 06:53 ESE 9 10 Light Rain SCT029 BKN044 BKN095 OVC250 66 61     84%     29.96 29.94 0   0
Jun 23 06:11 NE 3 10 Light Rain BKN029 BKN095 OVC250 67 60     79%     30   0    
Jun 23 05:53 Calm 10 Mostly Cloudy BKN031 BKN095 66 60     81%     30.01 29.98 0    
Jun 23 04:53 ESE 9 10 Clear   68 57     68%     29.96 29.93      
Jun 23 03:53 ESE 11 10 Cloudy BKN140 OVC250 69 58     68%     29.96 29.93   0  
Jun 23 02:53 SE 11 10 Cloudy FEW050 BKN110 OVC250 70 61     73%     29.99 29.97      
Jun 23 01:53 SE 9 10 Cloudy FEW050 BKN110 BKN150 OVC250 72 63     73%   72 30.01 29.98 0    
Jun 23 00:53 SSE 8 10 Cloudy BKN110 BKN150 OVC250 74 62     66%   74 30.01 29.98      
Jun 22 23:53 SE 9 10 Cloudy FEW049 BKN120 BKN150 OVC250 74 62     66%   74 30 29.97      
Jun 22 22:53 SE 11 10 Mostly Cloudy FEW049 BKN120 BKN250 76 63     64%   76 30.01 29.98      
Jun 22 21:53 ESE 6 10 Cloudy BKN045 BKN055 OVC250 74 63     69%   74 30.02 29.99      
Jun 22 20:53 E 8 10 Cloudy BKN040 BKN050 OVC250 76 63     64%   76 29.98 29.96      
Jun 22 19:53 SE 11 10 Mostly Cloudy BKN049 BKN250 78 64     62%   79 29.98 29.96      
Jun 22 18:53 SSE 9 10 Mostly Cloudy BKN041 BKN050 BKN250 79 63     58%   79 30.01 29.99      
Jun 22 17:53 E 10 10 Mostly Cloudy BKN045 BKN250 79 62     56%   79 29.99 29.97      
Jun 22 16:53 E 20 10 Partly Cloudy and Windy FEW047 SCT250 81 63     54%   82 29.95 29.93      
Jun 22 15:53 E 13 10 Mostly Cloudy SCT047 BKN055 BKN250 79 62     56%   79 30.01 29.98      
Jun 22 14:53 E 14 10 Mostly Cloudy FEW047 BKN060 BKN250 79 61     54%   79 30.02 30      
Jun 22 13:53 E 13 10 Mostly Cloudy BKN050 BKN250 79 61     54%   79 30.05 30.03      
Jun 22 12:53 E 14 10 Mostly Cloudy SCT050 SCT090 BKN250 79 61     54%   79 30.05 30.02      
Jun 22 11:53 E 14 10 Mostly Cloudy FEW045 SCT090 BKN250 77 61     58%   77 30.04 30.02      
Jun 22 10:53 ESE 11 10 Mostly Cloudy FEW045 FEW090 BKN250 75 61     62%   75 30.03 30.01      
Jun 22 09:53 E 13 10 Mostly Cloudy FEW040 FEW090 BKN250 71 59     66%   71 30.03 30.02      
Jun 22 08:53 E 8 10 Mostly Cloudy FEW045 FEW070 FEW090 BKN250 67 58     73%     30.01 30      
Jun 22 07:53 E 8 10 Mostly Cloudy FEW045 SCT070 SCT085 BKN250 67 58     73%     30.03 30.01      
May 15 08:24 N 13 10 Cloudy BKN011 OVC027 64 60     87%     29.93        
May 14 19:53 ESE 9 9 Cloudy FEW070 SCT180 OVC250 64 61     90%     29.8 29.79      
Notice The following observation data may not be complete
May 14 17:42   9 Mostly Cloudy BKN080 BKN150 BKN250          %              
May 13 20:53 E 3 10 Mostly Cloudy FEW100 FEW150 SCT180 BKN250 54 49     83%     29.97 29.97      
May 13 18:24 ENE 13 10 Cloudy FEW005 FEW070 SCT120 BKN150 OVC200 56 50     80%     29.94        
May 13 08:53 ENE 9 7 Cloudy OVC006 51 50     96%     30.04 30.05      
May 13 02:29 NNE 10 6 Fog/Mist OVC006 49 48     97% 45   30.03        
May 12 19:24 N 7 10 Cloudy BKN012 BKN020 OVC030 50 45     83% 47   30.1        
May 12 04:53 NNE 13 6 Fog/Mist BKN012 OVC080 47 43     86% 41   30 30      
May 12 02:53 NE 16 6 Fog/Mist SCT010 OVC070 49 44     83% 43   29.97 29.97      
Jun 11 22:53 SSW 14 10 Clear CLR 83 59     44%   83 29.91 29.88      
Jun 11 08:53 SSW 15 10 Mostly Clear FEW048 FEW250 78 61     56%   78 29.96 29.92      
Jun 11 00:53   10 Mostly Clear FEW250 77 55     47%   77 29.87 29.83      
Jun 09 23:53 ESE 6 10 Partly Cloudy FEW080 SCT200 68 59     73%     29.83 29.8      
Jun 08 09:53 5 10 Mostly Clear FEW250 73 46     38%   72 30.04 30.01      
Jun 08 03:53 Calm 10 Mostly Clear FEW250 60 46     60%     30.04 30.02      
Jun 07 17:53 NNE 13 10 Mostly Clear FEW075 FEW250 74 41     31%   72 30.08 30.06      
Jun 05 21:53 N 14 10 Clear CLR 63 47     56%     29.95 29.93